Flag for Canada Weather past 2 weeks in Sidney, British Columbia, Canada

Now
54 °F

Overcast.


Feels Like: 52 °F
Forecast: 54 / 63 °F
Wind: 6 mph from East

Location: Victoria Int. Airportb. C.

Current Time: Jun 2, 2015 at 4:40:44 AM

Latest Report: Jun 2, 2015 at 4:00 AM


Visibility: 20 mi

Pressure: 29.92 "Hg

Humidity: 94%

Dew point: 52 °F

Location of SidneyLocation

Historic Weather in Sidney — Graph

°F

Sidney temperature yesterday

Maximum temperature yesterday: 63 °F (at 12:00 PM)
Minimum temperature yesterday: 52 °F (at 5:00 AM)
Average temperature yesterday: 57 °F

Past Weeks' High & Low Weather Summary

 TemperatureHumidityPressure
High75 °F (May 29, 6:00 PM)100% (May 18, 6:00 AM)30.17 "Hg (May 18, 6:00 AM)
Low48 °F (May 20, 3:00 AM)40% (May 29, 9:00 PM)29.78 "Hg (Jun 1, 12:00 AM)
Average58 °F78%29.98 "Hg
* Reported May 18 3:00 AM — Jun 2 3:00 AM, Sidney, Weather by CustomWeather, © 2015

Note: Actual official high and low records may vary slightly from our data, if they occured in-between our weather recording intervals... More about our weather records

Advertising

Sidney weather history for previous 24 hours

 ConditionsComfort  
Time TempWeatherWind HumidityBarometerVisibility
3:00 AM
Tue, Jun 2
55 °FMostly cloudy.3 mph94%29.91 "Hg20 mi
2:45 AM55 °FMostly cloudy.No wind94%29.91 "Hg20 mi
2:00 AM55 °FLight rain. Mostly cloudy.No wind94%29.91 "Hg20 mi
1:00 AM55 °FMostly cloudy.2 mph94%29.91 "Hg20 mi
12:00 AM55 °FLight rain. Mostly cloudy.3 mph94%29.91 "Hg20 mi
11:00 PM
Mon, Jun 1
55 °FLight rain. Mostly cloudy.5 mph88%29.90 "Hg20 mi
10:00 PM55 °FMostly cloudy.No wind88%29.89 "Hg20 mi
9:00 PM55 °FCloudy.3 mph88%29.89 "Hg20 mi
8:00 PM57 °FMostly cloudy.2 mph82%29.88 "Hg20 mi
7:00 PM59 °FPartly sunny.2 mph82%29.88 "Hg20 mi
6:00 PM57 °FLight rain. Overcast.5 mph88%29.88 "Hg20 mi
5:00 PM57 °FLight rain. Cloudy.3 mph88%29.87 "Hg20 mi
4:00 PM57 °FMore clouds than sun.13 mph82%29.88 "Hg20 mi
3:00 PM57 °FLight rain. Overcast.14 mph82%29.87 "Hg20 mi
2:00 PM55 °FLight rain. Overcast.15 mph88%29.87 "Hg20 mi
1:00 PM63 °FMostly cloudy.17 mph64%29.87 "Hg20 mi
12:00 PM63 °FBroken clouds.10 mph64%29.87 "Hg20 mi
11:00 AM61 °FBroken clouds.7 mph68%29.86 "Hg20 mi
10:00 AM61 °FPartly sunny.8 mph72%29.85 "Hg20 mi
9:00 AM57 °FPartly sunny.8 mph82%29.84 "Hg20 mi
8:00 AM57 °FPartly sunny.8 mph82%29.82 "Hg30 mi
7:00 AM57 °FPartly sunny.No wind82%29.81 "Hg30 mi
6:00 AM52 °FPassing clouds.3 mph94%29.80 "Hg30 mi
5:00 AM52 °FPassing clouds.2 mph88%29.79 "Hg30 mi
4:00 AM54 °FPassing clouds.No wind94%29.78 "Hg30 mi
Weather by CustomWeather, © 2015

See weather overviewHow to use our weather pages